Besiktas Bosphorus — TCOG3 — position and weather

sailwx.info

Track history (hours):
 
Tides and Currents Weather Stations Pressure Air Temp Water Temp Dewpoint Dewpoint Depression Visibility Wind Speed Wind Dir Waves Ship Positions

Besiktas Bosphorus

Last reported at 2014-Oct-20 17:33 UTC. Time now 2014-Oct-21 21:32 UTC.
Position N 41°27' E 029°37'.

Length 274 m; draft 8.6 m.

Type: Tanker. MMSI: 271000817.

Date/timePositionNaut miles runAvg speedWind from/ knotsBaromVisibWave heightAir tempDewpointWater temp
2014-Oct-20 17:33N 41°27' E 029°37'11 8.7
2014-Oct-20 16:15N 41°21' E 029°24'710.7
2014-Oct-20 15:33N 41°17' E 029°16'2210.8
2014-Oct-20 13:33N 40°59' E 028°60'6 5.7
2014-Oct-20 12:33N 40°54' E 028°55'4 4.0
2014-Oct-20 11:32N 40°56' E 028°50'0 0.1
2014-Oct-20 09:17N 40°56' E 028°50'0 0.0
2014-Oct-20 04:26N 40°56' E 028°50'0 0.0
2014-Oct-20 02:32N 40°56' E 028°50'0 0.1
2014-Oct-20 00:26N 40°56' E 028°50'0 0.0
2014-Oct-19 22:26N 40°56' E 028°50'0 0.0
2014-Oct-19 21:20N 40°56' E 028°50'3 3.8
2014-Oct-19 20:32N 40°53' E 028°51'265 6.5
2014-Oct-18 03:33N 37°54' E 024°37'8 8.4
2014-Oct-18 02:33N 37°46' E 024°34'8 7.8
2014-Oct-18 01:33N 37°39' E 024°31'8 8.2
2014-Oct-18 00:33N 37°32' E 024°25'11 8.6
2014-Oct-17 23:14N 37°23' E 024°16'7 8.3
2014-Oct-17 22:25N 37°17' E 024°11'8 8.6
2014-Oct-17 21:33N 37°11' E 024°05'16 8.2
2014-Oct-17 19:33N 36°58' E 023°53'8 8.1
2014-Oct-17 18:32N 36°52' E 023°47'8 8.5
2014-Oct-17 17:33N 36°45' E 023°40'11 8.5
2014-Oct-17 16:14N 36°37' E 023°31'6 8.5
2014-Oct-17 15:33N 36°32' E 023°27'9 8.7
2014-Oct-17 14:33N 36°25' E 023°21'9 9.5
2014-Oct-17 13:33N 36°22' E 023°09'1413.8
2014-Oct-17 12:33N 36°24' E 022°52'95 9.4
2014-Oct-17 02:22N 36°19' E 020°54'9 9.4
2014-Oct-17 01:25N 36°20' E 020°43'11 9.4
2014-Oct-17 00:15N 36°20' E 020°30'263 9.3
2014-Oct-15 20:03N 36°24' E 015°03'15 9.3
2014-Oct-15 18:29N 36°23' E 014°45'9 9.2
2014-Oct-15 17:33N 36°24' E 014°35'9 9.2
2014-Oct-15 16:33N 36°27' E 014°24'9 9.1
2014-Oct-15 15:33N 36°29' E 014°13'10 9.2
2014-Oct-15 14:30N 36°32' E 014°01'1212.2
2014-Oct-15 13:33N 36°35' E 013°47'9 8.6
2014-Oct-15 12:33N 36°37' E 013°37'8 8.2
2014-Oct-15 11:33N 36°39' E 013°27'9 8.2
2014-Oct-15 10:29N 36°42' E 013°17'89 8.8
2014-Oct-15 00:22N 37°12' E 011°32'7 8.4
2014-Oct-14 23:30N 37°16' E 011°24'49 8.2
2014-Oct-14 17:33N 37°32' E 010°25'9 9.3
2014-Oct-14 16:33N 37°33' E 010°14'10 9.6
2014-Oct-14 15:33N 37°33' E 010°02'10 9.7
2014-Oct-14 14:33N 37°34' E 009°50'1414.3
2014-Oct-14 13:33N 37°35' E 009°31'11 9.5
2014-Oct-14 12:22N 37°36' E 009°17'  
2014-Oct-11 08:33N 35°59' W 005°18'  
Track history (hours):
 
Tides and Currents Weather Stations Pressure Air Temp Water Temp Dewpoint Dewpoint Depression Visibility Wind Speed Wind Dir Waves Ship Positions

Besiktas Bosphorus

Last reported at 2014-Oct-20 17:33 UTC. Time now 2014-Oct-21 21:32 UTC.
Position N 41°27' E 029°37'.

Length 274 m; draft 8.6 m.

Type: Tanker. MMSI: 271000817.

Date/timePositionNaut miles runAvg speedWind from/ knotsBaromVisibWave heightAir tempDewpointWater temp
2014-Oct-20 17:33N 41°27' E 029°37'11 8.7
2014-Oct-20 16:15N 41°21' E 029°24'710.7
2014-Oct-20 15:33N 41°17' E 029°16'2210.8
2014-Oct-20 13:33N 40°59' E 028°60'6 5.7
2014-Oct-20 12:33N 40°54' E 028°55'4 4.0
2014-Oct-20 11:32N 40°56' E 028°50'0 0.1
2014-Oct-20 09:17N 40°56' E 028°50'0 0.0
2014-Oct-20 04:26N 40°56' E 028°50'0 0.0
2014-Oct-20 02:32N 40°56' E 028°50'0 0.1
2014-Oct-20 00:26N 40°56' E 028°50'0 0.0
2014-Oct-19 22:26N 40°56' E 028°50'0 0.0
2014-Oct-19 21:20N 40°56' E 028°50'3 3.8
2014-Oct-19 20:32N 40°53' E 028°51'265 6.5
2014-Oct-18 03:33N 37°54' E 024°37'8 8.4
2014-Oct-18 02:33N 37°46' E 024°34'8 7.8
2014-Oct-18 01:33N 37°39' E 024°31'8 8.2
2014-Oct-18 00:33N 37°32' E 024°25'11 8.6
2014-Oct-17 23:14N 37°23' E 024°16'7 8.3
2014-Oct-17 22:25N 37°17' E 024°11'8 8.6
2014-Oct-17 21:33N 37°11' E 024°05'16 8.2
2014-Oct-17 19:33N 36°58' E 023°53'8 8.1
2014-Oct-17 18:32N 36°52' E 023°47'8 8.5
2014-Oct-17 17:33N 36°45' E 023°40'11 8.5
2014-Oct-17 16:14N 36°37' E 023°31'6 8.5
2014-Oct-17 15:33N 36°32' E 023°27'9 8.7
2014-Oct-17 14:33N 36°25' E 023°21'9 9.5
2014-Oct-17 13:33N 36°22' E 023°09'1413.8
2014-Oct-17 12:33N 36°24' E 022°52'95 9.4
2014-Oct-17 02:22N 36°19' E 020°54'9 9.4
2014-Oct-17 01:25N 36°20' E 020°43'11 9.4
2014-Oct-17 00:15N 36°20' E 020°30'263 9.3
2014-Oct-15 20:03N 36°24' E 015°03'15 9.3
2014-Oct-15 18:29N 36°23' E 014°45'9 9.2
2014-Oct-15 17:33N 36°24' E 014°35'9 9.2
2014-Oct-15 16:33N 36°27' E 014°24'9 9.1
2014-Oct-15 15:33N 36°29' E 014°13'10 9.2
2014-Oct-15 14:30N 36°32' E 014°01'1212.2
2014-Oct-15 13:33N 36°35' E 013°47'9 8.6
2014-Oct-15 12:33N 36°37' E 013°37'8 8.2
2014-Oct-15 11:33N 36°39' E 013°27'9 8.2
2014-Oct-15 10:29N 36°42' E 013°17'89 8.8
2014-Oct-15 00:22N 37°12' E 011°32'7 8.4
2014-Oct-14 23:30N 37°16' E 011°24'49 8.2
2014-Oct-14 17:33N 37°32' E 010°25'9 9.3
2014-Oct-14 16:33N 37°33' E 010°14'10 9.6
2014-Oct-14 15:33N 37°33' E 010°02'10 9.7
2014-Oct-14 14:33N 37°34' E 009°50'1414.3
2014-Oct-14 13:33N 37°35' E 009°31'11 9.5
2014-Oct-14 12:22N 37°36' E 009°17'  
2014-Oct-11 08:33N 35°59' W 005°18'  

Dump ship's entire track history